STARLINK-80 (44282 NORAD) Tracking and Keplerian Element Data

This shows tracking and keplerian element data for the satellite.

Feedback or suggestion? Click here.




ElementValue
Catalog44282
NameSTARLINK-80
Epoch Orbit16484
Epoch Day123.77347002
Epoch Year2022
RAAN197.4861
Inclination52.9933
Eccentricity0.001076
Argument of Perigee338.9386
Mean Anonmoly21.6301
Mean Motion16.27325173
Decay Rate0.14007298
L11 44282U 19029AZ 22123.77347002 .14007298 12185-4 37680-2 0 9999
L22 44282 52.9933 197.4861 0010760 338.9386 21.6301 16.27325173164846



Live tracking and technical data element details for STARLINK-80 (NORAD 44282). STARLINK-80 can be tracked NOW for your location showing map with azimuth and elevation plus other details from your city location.







IsCatalogInMostPopularTable: catalog: 44282, numindb: 283
Update: records affected: 1



GetName: 44282 STARLINK-80

Hit Count: updated at: Thu, 15 May 2025 19:03:01 GMT